﻿_id,日時,平均風速(m/s),平均風向,最大瞬間風速(m/s),最大風速時風向,気温(℃),湿度(%),10分間移動積算雨量(mm),1時間移動積算雨量(mm),日雨量(mm),累計雨量(mm),日射(日積算)(MJ/m2),日照(日積算)(min),現地気圧(hPa),海面気圧(hPa)
1,2019-12-23T00:00:00,1,南,2.1,南,5.3,94.7,0,0,0.5,0.5,1.85,0,1001.1,1015.4
2,2019-12-23T00:01:00,1,南,2.1,南,5.3,94.8,0,0,0,0.5,0,0,1001.1,1015.4
3,2019-12-23T00:02:00,1.1,南,2.1,南,5.3,94.9,0,0,0,0.5,0,0,1001,1015.3
4,2019-12-23T00:03:00,1.1,南,2.1,南南西,5.3,94.9,0,0,0,0.5,0,0,1001,1015.3
5,2019-12-23T00:04:00,1.2,南,2.2,南,5.3,94.9,0,0,0,0.5,0,0,1001.1,1015.4
6,2019-12-23T00:05:00,1.2,南,2.2,南,5.3,94.9,0,0,0,0.5,0,0,1001.1,1015.4
7,2019-12-23T00:06:00,1.2,南,2.2,南,5.3,95,0,0,0,0.5,0,0,1001,1015.3
8,2019-12-23T00:07:00,1.2,南,2.2,南,5.3,94.9,0,0,0,0.5,0,0,1001,1015.3
9,2019-12-23T00:08:00,1.2,南,2.2,南,5.3,95,0,0,0,0.5,0,0,1001,1015.3
10,2019-12-23T00:09:00,1.3,南,2.2,南,5.3,95,0,0,0,0.5,0,0,1001,1015.3
11,2019-12-23T00:10:00,1.3,南,2.2,南,5.3,95.1,0,0,0,0.5,0,0,1001,1015.3
12,2019-12-23T00:11:00,1.4,南,2.2,南,5.3,95.1,0,0,0,0.5,0,0,1001,1015.3
13,2019-12-23T00:12:00,1.3,南,2.2,南,5.3,95.1,0,0,0,0.5,0,0,1001,1015.3
14,2019-12-23T00:13:00,1.4,南,2.4,南南西,5.3,95.1,0,0,0,0.5,0,0,1000.9,1015.2
15,2019-12-23T00:14:00,1.4,南,2.4,南南西,5.3,95.2,0,0,0,0.5,0,0,1000.9,1015.2
16,2019-12-23T00:15:00,1.4,南,2.4,南南西,5.2,95.2,0,0,0,0.5,0,0,1000.9,1015.2
17,2019-12-23T00:16:00,1.3,南,2.4,南南西,5.3,95.2,0,0,0,0.5,0,0,1000.9,1015.2
18,2019-12-23T00:17:00,1.3,南,2.4,南南西,5.3,95.3,0,0,0,0.5,0,0,1000.9,1015.2
19,2019-12-23T00:18:00,1.3,南,2.4,南南西,5.3,95.3,0,0,0,0.5,0,0,1000.9,1015.2
20,2019-12-23T00:19:00,1.2,南,2.4,南南西,5.3,95.3,0,0,0,0.5,0,0,1000.9,1015.2
21,2019-12-23T00:20:00,1.1,南,2.4,南南西,5.3,95.3,0,0,0,0.5,0,0,1000.9,1015.2
22,2019-12-23T00:21:00,1,南南西,2.4,南南西,5.3,95.4,0,0,0,0.5,0,0,1000.9,1015.2
23,2019-12-23T00:22:00,1,南南西,2.4,南南西,5.3,95.4,0,0,0,0.5,0,0,1000.9,1015.2
24,2019-12-23T00:23:00,0.9,南南西,2.4,南,5.4,95.4,0,0,0,0.5,0,0,1000.9,1015.2
25,2019-12-23T00:24:00,0.8,南南西,2,南南東,5.3,95.4,0,0,0,0.5,0,0,1000.9,1015.2
26,2019-12-23T00:25:00,0.7,南南西,1.7,南,5.3,95.3,0,0,0,0.5,0,0,1000.8,1015.1
27,2019-12-23T00:26:00,0.7,南南西,1.6,南南西,5.3,95.3,0,0,0,0.5,0,0,1000.9,1015.2
28,2019-12-23T00:27:00,0.6,南南西,1.6,南南西,5.3,95.3,0,0,0,0.5,0,0,1000.8,1015.1
29,2019-12-23T00:28:00,0.6,南南西,1.6,南南西,5.3,95.3,0,0,0,0.5,0,0,1000.9,1015.2
30,2019-12-23T00:29:00,0.5,南南西,1.2,南南東,5.3,95.3,0,0,0,0.5,0,0,1000.9,1015.2
31,2019-12-23T00:30:00,0.5,南南西,1.2,南南東,5.4,95.3,0,0,0,0.5,0,0,1000.9,1015.2
32,2019-12-23T00:31:00,0.5,南,1.2,南南東,5.4,95.3,0,0,0,0.5,0,0,1000.9,1015.2
33,2019-12-23T00:32:00,0.5,南,1.2,南南東,5.5,95.5,0,0,0,0.5,0,0,1001,1015.3
34,2019-12-23T00:33:00,0.4,南南西,1.2,北東,5.6,95.6,0,0,0,0.5,0,0,1001,1015.3
35,2019-12-23T00:34:00,0.4,南南西,1.2,北東,5.6,95.6,0,0,0,0.5,0,0,1001,1015.3
36,2019-12-23T00:35:00,0.4,西南西,1.2,北東,5.5,95.4,0,0,0,0.5,0,0,1001,1015.3
37,2019-12-23T00:36:00,0.3,北西,1.2,北東,5.5,95.3,0,0,0,0.5,0,0,1000.9,1015.2
38,2019-12-23T00:37:00,0.4,北,1.2,北東,5.4,95.2,0,0,0,0.5,0,0,1000.9,1015.2
39,2019-12-23T00:38:00,0.4,北,1.3,北北東,5.5,95.2,0,0,0,0.5,0,0,1000.9,1015.2
40,2019-12-23T00:39:00,0.4,北,1.3,北北東,5.5,95.3,0,0,0,0.5,0,0,1001,1015.3
41,2019-12-23T00:40:00,0.5,北,1.3,北北東,5.5,95.3,0,0,0,0.5,0,0,1001,1015.3
42,2019-12-23T00:41:00,0.5,北,1.3,北北東,5.6,95.3,0,0,0,0.5,0,0,1001,1015.3
43,2019-12-23T00:42:00,0.5,北,1.3,北北東,5.6,95.4,0,0,0,0.5,0,0,1001,1015.3
44,2019-12-23T00:43:00,0.5,北,1.3,北北東,5.7,95.5,0,0,0,0.5,0,0,1001,1015.3
45,2019-12-23T00:44:00,0.5,北,1.3,北北東,5.6,95.5,0,0,0,0.5,0,0,1001,1015.3
46,2019-12-23T00:45:00,0.5,北,1.3,北北東,5.6,95.3,0,0,0,0.5,0,0,1001,1015.3
47,2019-12-23T00:46:00,0.6,北,1.5,北東,5.5,95.2,0,0,0,0.5,0,0,1001,1015.3
48,2019-12-23T00:47:00,0.7,北,1.6,東北東,5.5,95.2,0,0,0,0.5,0,0,1001,1015.3
49,2019-12-23T00:48:00,0.7,北,1.7,北北東,5.6,95.2,0,0,0,0.5,0,0,1001,1015.3
50,2019-12-23T00:49:00,0.8,北,1.9,東北東,5.7,95.3,0,0,0,0.5,0,0,1001,1015.3
51,2019-12-23T00:50:00,0.8,北北東,1.9,東北東,5.7,95.4,0,0,0,0.5,0,0,1001.1,1015.4
52,2019-12-23T00:51:00,0.8,北北東,1.9,東北東,5.6,95.4,0,0,0,0.5,0,0,1001.1,1015.4
53,2019-12-23T00:52:00,0.8,北北東,1.9,東北東,5.6,95.2,0,0,0,0.5,0,0,1001.1,1015.4
54,2019-12-23T00:53:00,0.8,北北東,1.9,東北東,5.6,95.2,0,0,0,0.5,0,0,1001.1,1015.4
55,2019-12-23T00:54:00,0.8,北東,1.9,東北東,5.6,95.1,0,0,0,0.5,0,0,1001,1015.3
56,2019-12-23T00:55:00,0.8,東北東,1.9,東北東,5.6,94.9,0,0,0,0.5,0,0,1001,1015.3
57,2019-12-23T00:56:00,0.7,東北東,1.9,東北東,5.8,95.2,0,0,0,0.5,0,0,1001,1015.3
58,2019-12-23T00:57:00,0.6,北東,1.9,東北東,5.7,95.3,0,0,0,0.5,0,0,1001,1015.3
59,2019-12-23T00:58:00,0.6,北東,1.9,東北東,5.7,95.1,0,0,0,0.5,0,0,1001.1,1015.4
60,2019-12-23T00:59:00,0.5,北東,1.5,東北東,5.8,95.3,0,0,0,0.5,0,0,1001.1,1015.4
61,2019-12-23T01:00:00,0.4,北東,1.5,東北東,5.8,95.2,0,0,0,0.5,0,0,1001.1,1015.4
62,2019-12-23T01:01:00,0.4,北東,1.5,東北東,5.7,95,0,0,0,0.5,0,0,1001.1,1015.4
63,2019-12-23T01:02:00,0.3,北東,1.5,東北東,5.7,94.8,0,0,0,0.5,0,0,1001.1,1015.4
64,2019-12-23T01:03:00,0.4,東北東,1.5,東北東,5.7,94.7,0,0,0,0.5,0,0,1001.2,1015.5
65,2019-12-23T01:04:00,0.4,北東,1.5,東北東,5.7,94.9,0,0,0,0.5,0,0,1001.2,1015.5
66,2019-12-23T01:05:00,0.3,北北東,1.5,東北東,5.7,95,0,0,0,0.5,0,0,1001.1,1015.4
67,2019-12-23T01:06:00,0.3,北北東,1.5,東北東,5.6,94.7,0,0,0,0.5,0,0,1001.1,1015.4
68,2019-12-23T01:07:00,0.3,北北東,1.5,東北東,5.7,94.6,0,0,0,0.5,0,0,1001.1,1015.4
69,2019-12-23T01:08:00,0.3,北,1.2,西,5.7,94.8,0,0,0,0.5,0,0,1001.1,1015.4
70,2019-12-23T01:09:00,0.3,西南西,1.4,南南西,5.7,94.9,0,0,0,0.5,0,0,1001.1,1015.4
71,2019-12-23T01:10:00,0.4,西南西,1.4,南南西,5.6,94.8,0,0,0,0.5,0,0,1001.1,1015.4
72,2019-12-23T01:11:00,0.5,西南西,1.4,南南西,5.6,94.6,0,0,0,0.5,0,0,1001.1,1015.4
73,2019-12-23T01:12:00,0.6,南西,1.4,南南西,5.6,94.6,0,0,0,0.5,0,0,1001.1,1015.4
74,2019-12-23T01:13:00,0.6,南西,1.4,南南西,5.6,94.6,0,0,0,0.5,0,0,1001,1015.3
75,2019-12-23T01:14:00,0.6,南西,1.4,南南西,5.5,94.7,0,0,0,0.5,0,0,1001.1,1015.4
76,2019-12-23T01:15:00,0.7,南南西,1.4,南南西,5.6,94.7,0,0,0,0.5,0,0,1001.1,1015.4
77,2019-12-23T01:16:00,0.7,南西,1.4,南南西,5.5,94.7,0,0,0,0.5,0,0,1001.1,1015.4
78,2019-12-23T01:17:00,0.7,南西,1.4,南南西,5.6,94.9,0,0,0,0.5,0,0,1001.1,1015.4
79,2019-12-23T01:18:00,0.7,南西,1.4,南南西,5.8,95.2,0,0,0,0.5,0,0,1001.1,1015.4
80,2019-12-23T01:19:00,0.6,南西,1.3,南西,5.6,95.1,0,0,0,0.5,0,0,1001.1,1015.4
81,2019-12-23T01:20:00,0.5,南西,1.2,南南西,5.7,94.7,0,0,0,0.5,0,0,1001.1,1015.4
82,2019-12-23T01:21:00,0.5,西南西,1.2,南南西,5.6,94.9,0,0,0,0.5,0,0,1001.1,1015.4
83,2019-12-23T01:22:00,0.4,西南西,1,南西,5.6,94.7,0,0,0,0.5,0,0,1001.1,1015.4
84,2019-12-23T01:23:00,0.4,西,1,南西,5.6,94.7,0,0,0,0.5,0,0,1001.1,1015.4
85,2019-12-23T01:24:00,0.3,西,0.9,南西,5.6,94.7,0,0,0,0.5,0,0,1001,1015.3
86,2019-12-23T01:25:00,0.3,西北西,0.8,北,5.6,94.8,0,0,0,0.5,0,0,1001.1,1015.4
87,2019-12-23T01:26:00,0.2,静穏,0.8,北,5.6,94.8,0,0,0,0.5,0,0,1001.1,1015.4
88,2019-12-23T01:27:00,0.2,静穏,0.8,北,5.6,94.8,0,0,0,0.5,0,0,1001.1,1015.4
89,2019-12-23T01:28:00,0.3,北北西,0.8,北,5.6,94.9,0,0,0,0.5,0,0,1001.1,1015.4
90,2019-12-23T01:29:00,0.3,北,0.8,北,5.6,95.1,0,0,0,0.5,0,0,1001.1,1015.4
91,2019-12-23T01:30:00,0.3,北,0.8,北,5.7,95,0,0,0,0.5,0,0,1001.1,1015.4
92,2019-12-23T01:31:00,0.3,北,0.8,北,5.6,95.2,0,0,0,0.5,0,0,1001.1,1015.4
93,2019-12-23T01:32:00,0.3,北,0.7,南西,5.5,94.9,0,0,0,0.5,0,0,1001.1,1015.4
94,2019-12-23T01:33:00,0.3,北,0.7,南西,5.5,94.6,0,0,0,0.5,0,0,1001.1,1015.4
95,2019-12-23T01:34:00,0.3,北,0.7,南西,5.4,94.4,0,0,0,0.5,0,0,1001.1,1015.4
96,2019-12-23T01:35:00,0.4,北,0.7,南西,5.4,94.5,0,0,0,0.5,0,0,1001.1,1015.4
97,2019-12-23T01:36:00,0.4,北北西,0.7,南西,5.4,94.6,0,0,0,0.5,0,0,1001.1,1015.4
98,2019-12-23T01:37:00,0.4,北北西,0.7,南西,5.3,94.6,0,0,0,0.5,0,0,1001.1,1015.4
99,2019-12-23T01:38:00,0.4,北北西,0.7,南西,5.3,94.6,0,0,0,0.5,0,0,1001.1,1015.4
100,2019-12-23T01:39:00,0.3,北北西,0.8,北北東,5.3,94.8,0,0,0,0.5,0,0,1001.1,1015.4
101,2019-12-23T01:40:00,0.3,北北西,0.8,北北東,5.3,94.8,0,0,0,0.5,0,0,1001.1,1015.4
102,2019-12-23T01:41:00,0.3,北,0.8,北北東,5.2,95,0,0,0,0.5,0,0,1001.1,1015.4
103,2019-12-23T01:42:00,0.3,北,0.8,北北東,5.2,95.1,0,0,0,0.5,0,0,1001.2,1015.5
104,2019-12-23T01:43:00,0.2,静穏,0.8,北北東,5.2,95.2,0,0,0,0.5,0,0,1001.2,1015.5
105,2019-12-23T01:44:00,0.2,静穏,0.8,北北東,5.2,95.3,0,0,0,0.5,0,0,1001.2,1015.5
106,2019-12-23T01:45:00,0.2,静穏,0.8,北北東,5.2,95.3,0,0,0,0.5,0,0,1001.2,1015.5
107,2019-12-23T01:46:00,0.2,静穏,0.8,北北東,5.3,95.4,0,0,0,0.5,0,0,1001.2,1015.5
108,2019-12-23T01:47:00,0.2,静穏,0.8,北北東,5.3,95.4,0,0,0,0.5,0,0,1001.2,1015.5
109,2019-12-23T01:48:00,0.1,静穏,0.8,北北東,5.2,95.4,0,0,0,0.5,0,0,1001.2,1015.5
110,2019-12-23T01:49:00,0.1,静穏,0.7,南南東,5.2,95.3,0,0,0,0.5,0,0,1001.2,1015.5
111,2019-12-23T01:50:00,0.2,静穏,1.4,南南西,5.1,95.3,0,0,0,0.5,0,0,1001.2,1015.5
112,2019-12-23T01:51:00,0.2,静穏,1.4,南南西,5,95.3,0,0,0,0.5,0,0,1001.2,1015.5
113,2019-12-23T01:52:00,0.3,南南東,1.4,南南西,5,95.2,0,0,0,0.5,0,0,1001.2,1015.5
114,2019-12-23T01:53:00,0.3,南,1.4,南南西,5.1,95.3,0,0,0,0.5,0,0,1001.2,1015.5
115,2019-12-23T01:54:00,0.3,南,1.4,南南西,5.2,95.6,0,0,0,0.5,0,0,1001.3,1015.6
116,2019-12-23T01:55:00,0.4,南南西,1.4,南南西,5.2,95.6,0,0,0,0.5,0,0,1001.2,1015.5
117,2019-12-23T01:56:00,0.5,南南西,1.4,南南西,5.1,95.5,0,0,0,0.5,0,0,1001.2,1015.5
118,2019-12-23T01:57:00,0.5,南南西,1.4,南南西,5.1,95.5,0,0,0,0.5,0,0,1001.2,1015.5
119,2019-12-23T01:58:00,0.5,南南西,1.4,南南西,5,95.5,0,0,0,0.5,0,0,1001.2,1015.5
120,2019-12-23T01:59:00,0.6,南南西,1.4,南南西,5,95.5,0,0,0,0.5,0,0,1001.2,1015.5
121,2019-12-23T02:00:00,0.5,南西,1.3,南西,5,95.5,0,0,0,0.5,0,0,1001.2,1015.5
122,2019-12-23T02:01:00,0.4,南西,1.2,南南西,5.1,95.6,0,0,0,0.5,0,0,1001.2,1015.5
123,2019-12-23T02:02:00,0.4,南西,1.2,南南西,5.1,95.6,0,0,0,0.5,0,0,1001.2,1015.5
124,2019-12-23T02:03:00,0.4,南西,1.2,南南西,5,95.6,0,0,0,0.5,0,0,1001.2,1015.5
125,2019-12-23T02:04:00,0.4,西南西,1.2,南南西,5.1,95.7,0,0,0,0.5,0,0,1001.2,1015.5
126,2019-12-23T02:05:00,0.4,南西,1.2,南南西,5,95.7,0,0,0,0.5,0,0,1001.2,1015.5
127,2019-12-23T02:06:00,0.4,南西,1.2,南南西,5.2,95.8,0,0,0,0.5,0,0,1001.2,1015.5
128,2019-12-23T02:07:00,0.3,西南西,1.2,南南西,5.3,96,0,0,0,0.5,0,0,1001.2,1015.5
129,2019-12-23T02:08:00,0.2,静穏,1.2,南南西,5.2,96,0,0,0,0.5,0,0,1001.2,1015.5
130,2019-12-23T02:09:00,0.2,静穏,1.1,南西,5.1,95.8,0,0,0,0.5,0,0,1001.2,1015.5
131,2019-12-23T02:10:00,0.2,静穏,1.1,南西,4.8,95.4,0,0,0,0.5,0,0,1001.2,1015.5
132,2019-12-23T02:11:00,0.4,西南西,1.4,南南西,4.9,95.3,0,0,0,0.5,0,0,1001.2,1015.5
133,2019-12-23T02:12:00,0.5,南西,1.5,南南西,5.1,95.7,0,0,0,0.5,0,0,1001.3,1015.6
134,2019-12-23T02:13:00,0.6,南西,1.6,南,5,95.8,0,0,0,0.5,0,0,1001.3,1015.6
135,2019-12-23T02:14:00,0.6,南西,1.6,南,4.9,95.7,0,0,0,0.5,0,0,1001.3,1015.6
136,2019-12-23T02:15:00,0.6,南南西,1.6,南,4.9,95.6,0,0,0,0.5,0,0,1001.3,1015.6
137,2019-12-23T02:16:00,0.7,南西,1.6,南,4.9,95.7,0,0,0,0.5,0,0,1001.3,1015.6
138,2019-12-23T02:17:00,0.8,南南西,1.6,南,5,95.8,0,0,0,0.5,0,0,1001.3,1015.6
139,2019-12-23T02:18:00,0.9,南南西,1.6,南,5,95.7,0,0,0,0.5,0,0,1001.3,1015.6
140,2019-12-23T02:19:00,1,南南西,1.6,南,4.9,95.8,0,0,0,0.5,0,0,1001.3,1015.6
141,2019-12-23T02:20:00,1.1,南南西,1.6,南,4.8,95.6,0,0,0,0.5,0,0,1001.3,1015.6
142,2019-12-23T02:21:00,1.1,南南西,1.6,南,4.8,95.6,0,0,0,0.5,0,0,1001.3,1015.6
143,2019-12-23T02:22:00,1.1,南南西,1.6,南,4.9,95.6,0,0,0,0.5,0,0,1001.3,1015.6
144,2019-12-23T02:23:00,1,南南西,1.6,南南西,4.9,95.8,0,0,0,0.5,0,0,1001.3,1015.6
145,2019-12-23T02:24:00,0.9,南南西,1.6,南南西,4.9,95.9,0,0,0,0.5,0,0,1001.3,1015.6
146,2019-12-23T02:25:00,0.9,南南西,1.6,南南西,4.9,95.9,0,0,0,0.5,0,0,1001.3,1015.6
147,2019-12-23T02:26:00,0.8,南南西,1.6,南南西,4.9,95.9,0,0,0,0.5,0,0,1001.3,1015.6
148,2019-12-23T02:27:00,0.7,南南西,1.6,南南西,4.9,95.9,0,0,0,0.5,0,0,1001.3,1015.6
149,2019-12-23T02:28:00,0.6,南南西,1.6,南南西,4.8,95.9,0,0,0,0.5,0,0,1001.3,1015.6
150,2019-12-23T02:29:00,0.5,南南西,1.6,南南西,4.7,95.7,0,0,0,0.5,0,0,1001.3,1015.7
151,2019-12-23T02:30:00,0.4,南南西,1.6,南南西,4.6,95.5,0,0,0,0.5,0,0,1001.3,1015.7
152,2019-12-23T02:31:00,0.4,南,1.1,南南西,4.7,95.5,0,0,0,0.5,0,0,1001.2,1015.6
153,2019-12-23T02:32:00,0.3,南,1,南,4.7,95.8,0,0,0,0.5,0,0,1001.3,1015.7
154,2019-12-23T02:33:00,0.3,南,0.9,南,4.8,95.9,0,0,0,0.5,0,0,1001.3,1015.6
155,2019-12-23T02:34:00,0.2,静穏,0.9,南,4.8,96,0,0,0,0.5,0,0,1001.3,1015.6
156,2019-12-23T02:35:00,0.2,静穏,0.8,南南東,4.7,95.9,0,0,0,0.5,0,0,1001.3,1015.7
157,2019-12-23T02:36:00,0.2,静穏,0.8,南南東,4.6,95.8,0,0,0,0.5,0,0,1001.3,1015.7
158,2019-12-23T02:37:00,0.2,静穏,0.8,南南東,4.5,95.7,0,0,0,0.5,0,0,1001.3,1015.7
159,2019-12-23T02:38:00,0.2,静穏,0.8,南南東,4.4,95.6,0,0,0,0.5,0,0,1001.3,1015.7
160,2019-12-23T02:39:00,0.2,静穏,0.8,南南東,4.5,95.6,0,0,0,0.5,0,0,1001.3,1015.7
161,2019-12-23T02:40:00,0.3,西南西,0.8,南南東,4.5,95.7,0,0,0,0.5,0,0,1001.3,1015.7
162,2019-12-23T02:41:00,0.2,静穏,0.6,南南東,4.4,95.7,0,0,0,0.5,0,0,1001.4,1015.8
163,2019-12-23T02:42:00,0.2,静穏,0.5,西,4.4,95.8,0,0,0,0.5,0,0,1001.3,1015.7
164,2019-12-23T02:43:00,0.1,静穏,0.5,西,4.5,95.9,0,0,0,0.5,0,0,1001.4,1015.8
165,2019-12-23T02:44:00,0.2,静穏,0.5,西,4.6,96,0,0,0,0.5,0,0,1001.3,1015.7
166,2019-12-23T02:45:00,0.2,静穏,0.5,西,4.5,96.1,0,0,0,0.5,0,0,1001.3,1015.7
167,2019-12-23T02:46:00,0.2,静穏,0.8,北東,4.5,96,0,0,0,0.5,0,0,1001.3,1015.7
168,2019-12-23T02:47:00,0.3,北北東,0.8,北東,4.5,96,0,0,0,0.5,0,0,1001.3,1015.7
169,2019-12-23T02:48:00,0.3,北北東,0.8,北東,4.5,96,0,0,0,0.5,0,0,1001.3,1015.7
170,2019-12-23T02:49:00,0.3,北東,0.8,北東,4.5,96,0,0,0,0.5,0,0,1001.3,1015.7
171,2019-12-23T02:50:00,0.3,北東,0.8,北東,4.5,96,0,0,0,0.5,0,0,1001.3,1015.7
172,2019-12-23T02:51:00,0.3,東北東,0.8,北東,4.5,96,0,0,0,0.5,0,0,1001.3,1015.7
173,2019-12-23T02:52:00,0.3,東北東,0.8,北東,4.5,96,0,0,0,0.5,0,0,1001.2,1015.6
174,2019-12-23T02:53:00,0.4,東北東,0.8,北東,4.4,96,0,0,0,0.5,0,0,1001.2,1015.6
175,2019-12-23T02:54:00,0.4,東北東,0.8,北東,4.3,95.9,0,0,0,0.5,0,0,1001.3,1015.7
176,2019-12-23T02:55:00,0.3,東,0.8,北東,4.5,95.9,0,0,0,0.5,0,0,1001.3,1015.7
177,2019-12-23T02:56:00,0.3,東南東,0.8,南西,4.4,96,0,0,0,0.5,0,0,1001.2,1015.6
178,2019-12-23T02:57:00,0.3,南南東,0.8,南西,4.5,96.1,0,0,0,0.5,0,0,1001.3,1015.7
179,2019-12-23T02:58:00,0.3,南南東,0.8,南西,4.4,96.2,0,0,0,0.5,0,0,1001.2,1015.6
180,2019-12-23T02:59:00,0.3,南,0.9,南,4.4,96.1,0,0,0,0.5,0,0,1001.2,1015.6
181,2019-12-23T03:00:00,0.2,静穏,0.9,南,4.3,96,0,0,0,0.5,0,0,1001.2,1015.6
182,2019-12-23T03:01:00,0.3,南,0.9,南,4.4,96.1,0,0,0,0.5,0,0,1001.2,1015.6
183,2019-12-23T03:02:00,0.3,南南西,0.9,南,4.6,96.2,0,0,0,0.5,0,0,1001.2,1015.6
184,2019-12-23T03:03:00,0.2,静穏,0.9,南,4.5,96.3,0,0,0,0.5,0,0,1001.2,1015.6
185,2019-12-23T03:04:00,0.3,南南西,0.9,南,4.4,96.2,0,0,0,0.5,0,0,1001.3,1015.7
186,2019-12-23T03:05:00,0.3,南南西,0.9,南,4.4,96.1,0,0,0,0.5,0,0,1001.3,1015.7
187,2019-12-23T03:06:00,0.4,南南西,1.1,南南西,4.3,96,0,0,0,0.5,0,0,1001.3,1015.7
188,2019-12-23T03:07:00,0.4,南南西,1.5,南西,4.3,95.9,0,0,0,0.5,0,0,1001.3,1015.7
189,2019-12-23T03:08:00,0.5,南南西,1.5,南西,4.2,95.9,0,0,0,0.5,0,0,1001.3,1015.7
190,2019-12-23T03:09:00,0.5,南南西,1.5,南西,4.2,96,0,0,0,0.5,0,0,1001.3,1015.7
191,2019-12-23T03:10:00,0.6,南南西,1.5,南西,4.2,96,0,0,0,0.5,0,0,1001.3,1015.7
192,2019-12-23T03:11:00,0.7,南南西,1.8,南南東,4.2,96,0,0,0,0.5,0,0,1001.4,1015.8
193,2019-12-23T03:12:00,0.7,南南西,1.8,南南東,4.1,96,0,0,0,0.5,0,0,1001.3,1015.7
194,2019-12-23T03:13:00,0.9,南南西,1.8,南南東,3.9,95.9,0,0,0,0.5,0,0,1001.3,1015.7
195,2019-12-23T03:14:00,0.9,南南西,1.8,南南東,3.9,95.8,0,0,0,0.5,0,0,1001.4,1015.8
196,2019-12-23T03:15:00,1,南南西,1.8,南南東,3.9,95.9,0,0,0,0.5,0,0,1001.4,1015.8
197,2019-12-23T03:16:00,1,南南西,1.8,南南東,4,96,0,0,0,0.5,0,0,1001.5,1015.9
198,2019-12-23T03:17:00,1,南南西,1.8,南南東,4,96.1,0,0,0,0.5,0,0,1001.5,1015.9
199,2019-12-23T03:18:00,1,南南西,1.8,南南東,3.9,96.1,0,0,0,0.5,0,0,1001.5,1015.9
200,2019-12-23T03:19:00,1,南南西,1.8,南南東,3.9,96.1,0,0,0,0.5,0,0,1001.5,1015.9
201,2019-12-23T03:20:00,1.1,南南西,1.8,南南東,3.9,96.1,0,0,0,0.5,0,0,1001.5,1015.9
202,2019-12-23T03:21:00,1.1,南南西,2,南南西,3.8,96.1,0,0,0,0.5,0,0,1001.5,1015.9
203,2019-12-23T03:22:00,1.2,南南西,2,南南西,3.8,96,0,0,0,0.5,0,0,1001.6,1016
204,2019-12-23T03:23:00,1.2,南南西,2,南南西,3.8,96,0,0,0,0.5,0,0,1001.6,1016
205,2019-12-23T03:24:00,1.1,南南西,2,南南西,3.8,96.1,0,0,0,0.5,0,0,1001.5,1015.9
206,2019-12-23T03:25:00,1.1,南南西,2,南南西,3.8,96.1,0,0,0,0.5,0,0,1001.6,1016
207,2019-12-23T03:26:00,1,南南西,2,南南西,3.9,96.1,0,0,0,0.5,0,0,1001.6,1016
208,2019-12-23T03:27:00,1,南南西,2,南南西,3.8,96.3,0,0,0,0.5,0,0,1001.6,1016
209,2019-12-23T03:28:00,1,南南西,2,南南西,3.9,96.3,0,0,0,0.5,0,0,1001.6,1016
210,2019-12-23T03:29:00,1,南南西,2,南南西,3.9,96.3,0,0,0,0.5,0,0,1001.6,1016
211,2019-12-23T03:30:00,0.9,南南西,2,南南西,3.8,96.3,0,0,0,0.5,0,0,1001.6,1016
212,2019-12-23T03:31:00,0.7,南南西,1.9,南南西,3.8,96.2,0,0,0,0.5,0,0,1001.6,1016
213,2019-12-23T03:32:00,0.6,南南西,1.7,南南東,3.9,96.3,0,0,0,0.5,0,0,1001.5,1015.9
214,2019-12-23T03:33:00,0.5,南,1.4,南,3.8,96.3,0,0,0,0.5,0,0,1001.5,1015.9
215,2019-12-23T03:34:00,0.4,南南西,1.4,南,3.9,96.3,0,0,0,0.5,0,0,1001.5,1015.9
216,2019-12-23T03:35:00,0.4,南南西,1.4,南,3.9,96.4,0,0,0,0.5,0,0,1001.5,1015.9
217,2019-12-23T03:36:00,0.4,南南西,1.4,南,4,96.4,0,0,0,0.5,0,0,1001.5,1015.9
218,2019-12-23T03:37:00,0.4,南,1.4,南,3.9,96.4,0,0,0,0.5,0,0,1001.5,1015.9
219,2019-12-23T03:38:00,0.4,南,1.4,南,4.1,96.5,0,0,0,0.5,0,0,1001.5,1015.9
220,2019-12-23T03:39:00,0.3,南,1.2,南南西,3.9,96.5,0,0,0,0.5,0,0,1001.5,1015.9
221,2019-12-23T03:40:00,0.3,南,1,南西,3.9,96.4,0,0,0,0.5,0,0,1001.5,1015.9
222,2019-12-23T03:41:00,0.3,南南西,1,南西,4.1,96.5,0,0,0,0.5,0,0,1001.5,1015.9
223,2019-12-23T03:42:00,0.4,南南西,1.1,南南西,3.9,96.4,0,0,0,0.5,0,0,1001.4,1015.8
224,2019-12-23T03:43:00,0.3,南南西,1.1,南南西,3.8,96.3,0,0,0,0.5,0,0,1001.5,1015.9
225,2019-12-23T03:44:00,0.3,南南西,1.1,南南西,4,96.4,0,0,0,0.5,0,0,1001.5,1015.9
226,2019-12-23T03:45:00,0.3,南南西,1.1,南南西,4,96.5,0,0,0,0.5,0,0,1001.5,1015.9
227,2019-12-23T03:46:00,0.3,南南西,1.1,南南西,3.9,96.5,0,0,0,0.5,0,0,1001.5,1015.9
228,2019-12-23T03:47:00,0.4,南西,1.1,南南西,3.9,96.4,0,0,0,0.5,0,0,1001.6,1016
229,2019-12-23T03:48:00,0.4,南西,1.1,南南西,4,96.5,0,0,0,0.5,0,0,1001.5,1015.9
230,2019-12-23T03:49:00,0.4,南西,1.1,南南西,3.9,96.5,0,0,0,0.5,0,0,1001.5,1015.9
231,2019-12-23T03:50:00,0.4,南西,1.1,南南西,3.8,96.4,0,0,0,0.5,0,0,1001.5,1015.9
232,2019-12-23T03:51:00,0.4,南南西,1.1,南南西,3.7,96.2,0,0,0,0.5,0,0,1001.6,1016
233,2019-12-23T03:52:00,0.3,南西,1.1,西,3.9,96.3,0,0,0,0.5,0,0,1001.7,1016.1
234,2019-12-23T03:53:00,0.3,南南西,1.1,西,3.9,96.5,0,0,0,0.5,0,0,1001.7,1016.1
235,2019-12-23T03:54:00,0.4,南西,1.1,西,3.9,96.4,0,0,0,0.5,0,0,1001.7,1016.1
236,2019-12-23T03:55:00,0.4,南西,1.1,西,3.8,96.5,0,0,0,0.5,0,0,1001.7,1016.1
237,2019-12-23T03:56:00,0.4,南南西,1,南,3.7,96.3,0,0,0,0.5,0,0,1001.7,1016.1
238,2019-12-23T03:57:00,0.4,南,1,南,3.7,96.3,0,0,0,0.5,0,0,1001.8,1016.2
239,2019-12-23T03:58:00,0.4,南南西,1,南,3.9,96.3,0,0,0,0.5,0,0,1001.8,1016.2
240,2019-12-23T03:59:00,0.4,南南西,1.1,南南西,3.9,96.6,0,0,0,0.5,0,0,1001.9,1016.3
241,2019-12-23T04:00:00,0.5,南南西,1.7,南,3.8,96.5,0,0,0,0.5,0,0,1001.8,1016.2
242,2019-12-23T04:01:00,0.6,南南西,1.7,南,3.7,96.4,0,0,0,0.5,0,0,1001.9,1016.3
243,2019-12-23T04:02:00,0.6,南南西,1.7,南,3.7,96.4,0,0,0,0.5,0,0,1001.9,1016.3
244,2019-12-23T04:03:00,0.7,南南西,1.7,南,3.7,96.4,0,0,0,0.5,0,0,1002,1016.4
245,2019-12-23T04:04:00,0.8,南南西,1.7,南,3.7,96.4,0,0,0,0.5,0,0,1002,1016.4
246,2019-12-23T04:05:00,0.8,南南西,1.7,南,3.7,96.5,0,0,0,0.5,0,0,1002,1016.4
247,2019-12-23T04:06:00,0.9,南南西,1.7,南,3.7,96.5,0,0,0,0.5,0,0,1002,1016.4
248,2019-12-23T04:07:00,1,南南西,1.7,南,3.8,96.5,0,0,0,0.5,0,0,1002,1016.4
249,2019-12-23T04:08:00,1,南南西,1.7,南,3.8,96.5,0,0,0,0.5,0,0,1002,1016.4
250,2019-12-23T04:09:00,1,南南西,1.7,南,3.8,96.6,0,0,0,0.5,0,0,1002.1,1016.5
251,2019-12-23T04:10:00,1,南南西,1.7,南南西,3.7,96.5,0,0,0,0.5,0,0,1002.2,1016.6
252,2019-12-23T04:11:00,1,南南西,1.7,南南西,3.9,96.5,0,0,0,0.5,0,0,1002.1,1016.5
253,2019-12-23T04:12:00,1,南南西,1.7,南南西,3.7,96.6,0,0,0,0.5,0,0,1002.1,1016.5
254,2019-12-23T04:13:00,0.9,南西,1.7,南南西,3.8,96.5,0,0,0,0.5,0,0,1002.2,1016.6
255,2019-12-23T04:14:00,0.8,南西,1.7,南南西,4.1,96.7,0,0,0,0.5,0,0,1002.2,1016.6
256,2019-12-23T04:15:00,0.7,南西,1.6,南南西,4,96.8,0,0,0,0.5,0,0,1002.2,1016.6
257,2019-12-23T04:16:00,0.6,南西,1.6,南南西,4,96.8,0,0,0,0.5,0,0,1002.2,1016.6
258,2019-12-23T04:17:00,0.5,南西,1.6,南南西,3.9,96.7,0,0,0,0.5,0,0,1002.1,1016.5
259,2019-12-23T04:18:00,0.5,南西,1.5,南,4.1,96.7,0,0,0,0.5,0,0,1002.2,1016.6
260,2019-12-23T04:19:00,0.5,西南西,1.5,南,3.9,96.8,0,0,0,0.5,0,0,1002.2,1016.6
261,2019-12-23T04:20:00,0.4,西南西,1.5,南,3.9,96.6,0,0,0,0.5,0,0,1002.2,1016.6
262,2019-12-23T04:21:00,0.4,西南西,1.5,南,3.9,96.6,0,0,0,0.5,0,0,1002.1,1016.5
263,2019-12-23T04:22:00,0.3,西,1.2,南西,4,96.6,0,0,0,0.5,0,0,1002.1,1016.5
264,2019-12-23T04:23:00,0.3,西南西,1.1,西北西,4,96.7,0,0,0,0.5,0,0,1002.1,1016.5
265,2019-12-23T04:24:00,0.3,西南西,1.1,西北西,4,96.7,0,0,0,0.5,0,0,1002.1,1016.5
266,2019-12-23T04:25:00,0.4,南西,1.1,西北西,4,96.7,0,0,0,0.5,0,0,1002.1,1016.5
267,2019-12-23T04:26:00,0.4,南西,1.1,西北西,3.9,96.6,0,0,0,0.5,0,0,1002.1,1016.5
268,2019-12-23T04:27:00,0.4,西南西,1.1,西北西,3.8,96.6,0,0,0,0.5,0,0,1002.2,1016.6
269,2019-12-23T04:28:00,0.4,西南西,1.2,西北西,4,96.6,0,0,0,0.5,0,0,1002.2,1016.6
270,2019-12-23T04:29:00,0.5,西南西,1.2,西北西,3.9,96.6,0,0,0,0.5,0,0,1002.1,1016.5
271,2019-12-23T04:30:00,0.5,西南西,1.2,西北西,3.7,96.5,0,0,0,0.5,0,0,1002.1,1016.5
272,2019-12-23T04:31:00,0.4,西南西,1.2,西北西,3.8,96.4,0,0,0,0.5,0,0,1002.2,1016.6
273,2019-12-23T04:32:00,0.4,西南西,1.2,西北西,3.7,96.4,0,0,0,0.5,0,0,1002.2,1016.6
274,2019-12-23T04:33:00,0.4,西,1.2,西北西,3.7,96.5,0,0,0,0.5,0,0,1002.2,1016.6
275,2019-12-23T04:34:00,0.4,北西,1.2,西北西,3.8,96.6,0,0,0,0.5,0,0,1002.2,1016.6
276,2019-12-23T04:35:00,0.4,北北西,1.2,西北西,3.8,96.6,0,0,0,0.5,0,0,1002.2,1016.6
277,2019-12-23T04:36:00,0.3,北北西,1.2,西北西,3.9,96.7,0,0,0,0.5,0,0,1002.2,1016.6
278,2019-12-23T04:37:00,0.3,北,1.2,西北西,4,96.8,0,0,0,0.5,0,0,1002.2,1016.6
279,2019-12-23T04:38:00,0.3,北,1.1,西,3.8,96.8,0,0,0,0.5,0,0,1002.3,1016.7
280,2019-12-23T04:39:00,0.2,静穏,0.9,西,3.9,96.7,0,0,0,0.5,0,0,1002.3,1016.7
281,2019-12-23T04:40:00,0.2,静穏,0.9,西,3.8,96.7,0,0,0,0.5,0,0,1002.2,1016.6
282,2019-12-23T04:41:00,0.3,北北西,0.9,西,3.8,96.7,0,0,0,0.5,0,0,1002.2,1016.6
283,2019-12-23T04:42:00,0.3,北北西,0.9,西,3.9,96.7,0,0,0,0.5,0,0,1002.3,1016.7
284,2019-12-23T04:43:00,0.3,北北西,0.9,西,3.9,96.7,0,0,0,0.5,0,0,1002.3,1016.7
285,2019-12-23T04:44:00,0.2,静穏,0.9,西,3.9,96.8,0,0,0,0.5,0,0,1002.2,1016.6
286,2019-12-23T04:45:00,0.2,静穏,0.9,西,3.8,96.7,0,0,0,0.5,0,0,1002.2,1016.6
287,2019-12-23T04:46:00,0.2,静穏,0.9,西,3.7,96.6,0,0,0,0.5,0,0,1002.2,1016.6
288,2019-12-23T04:47:00,0.2,静穏,0.9,西,3.8,96.6,0,0,0,0.5,0,0,1002.2,1016.6
289,2019-12-23T04:48:00,0.2,静穏,0.9,西,3.8,96.6,0,0,0,0.5,0,0,1002.1,1016.5
290,2019-12-23T04:49:00,0.1,静穏,0.6,南,3.7,96.6,0,0,0,0.5,0,0,1002.1,1016.5
291,2019-12-23T04:50:00,0.1,静穏,0.6,南,3.7,96.5,0,0,0,0.5,0,0,1002.2,1016.6
292,2019-12-23T04:51:00,0.1,静穏,0.6,南,3.7,96.6,0,0,0,0.5,0,0,1002.2,1016.6
293,2019-12-23T04:52:00,0.1,静穏,0.6,南,3.6,96.6,0,0,0,0.5,0,0,1002.2,1016.6
294,2019-12-23T04:53:00,0.1,静穏,0.6,南,3.7,96.6,0,0,0,0.5,0,0,1002.2,1016.6
295,2019-12-23T04:54:00,0.1,静穏,0.6,南,3.6,96.6,0,0,0,0.5,0,0,1002.2,1016.6
296,2019-12-23T04:55:00,0.1,静穏,0.7,南,3.7,96.6,0,0,0,0.5,0,0,1002.2,1016.6
297,2019-12-23T04:56:00,0.1,静穏,0.7,南,3.7,96.7,0,0,0,0.5,0,0,1002.3,1016.7
298,2019-12-23T04:57:00,0.2,静穏,0.7,南,3.7,96.7,0,0,0,0.5,0,0,1002.3,1016.7
299,2019-12-23T04:58:00,0.2,静穏,0.7,南,3.6,96.7,0,0,0,0.5,0,0,1002.3,1016.7
300,2019-12-23T04:59:00,0.2,静穏,0.7,南,3.7,96.7,0,0,0,0.5,0,0,1002.2,1016.6
301,2019-12-23T05:00:00,0.2,静穏,0.8,南,3.6,96.7,0,0,0,0.5,0,0,1002.2,1016.6
302,2019-12-23T05:01:00,0.2,静穏,0.9,南東,3.4,96.5,0,0,0,0.5,0,0,1002.2,1016.6
303,2019-12-23T05:02:00,0.2,静穏,0.9,南東,3.3,96.3,0,0,0,0.5,0,0,1002.2,1016.6
304,2019-12-23T05:03:00,0.3,東南東,0.9,南東,3.3,96.3,0,0,0,0.5,0,0,1002.2,1016.6
305,2019-12-23T05:04:00,0.3,南東,0.9,南東,3.3,96.4,0,0,0,0.5,0,0,1002.2,1016.6
306,2019-12-23T05:05:00,0.3,南東,0.9,南東,3.3,96.4,0,0,0,0.5,0,0,1002.2,1016.6
307,2019-12-23T05:06:00,0.3,東南東,0.9,南東,3.3,96.4,0,0,0,0.5,0,0,1002.2,1016.6
308,2019-12-23T05:07:00,0.3,東南東,0.9,南東,3.3,96.4,0,0,0,0.5,0,0,1002.2,1016.6
309,2019-12-23T05:08:00,0.4,南東,0.9,南東,3.3,96.5,0,0,0,0.5,0,0,1002.2,1016.6
310,2019-12-23T05:09:00,0.4,東南東,0.9,南東,3.3,96.5,0,0,0,0.5,0,0,1002.2,1016.6
311,2019-12-23T05:10:00,0.4,東南東,0.9,南東,3.4,96.6,0,0,0,0.5,0,0,1002.2,1016.6
312,2019-12-23T05:11:00,0.4,東南東,0.9,南,3.3,96.6,0,0,0,0.5,0,0,1002.2,1016.6
313,2019-12-23T05:12:00,0.4,東南東,0.9,南,3.4,96.6,0,0,0,0.5,0,0,1002.3,1016.7
314,2019-12-23T05:13:00,0.3,南東,0.9,南,3.4,96.7,0,0,0,0.5,0,0,1002.3,1016.7
315,2019-12-23T05:14:00,0.4,南東,1.2,南,3.4,96.7,0,0,0,0.5,0,0,1002.2,1016.6
316,2019-12-23T05:15:00,0.4,南東,1.3,南,3.4,96.7,0,0,0,0.5,0,0,1002.3,1016.7
317,2019-12-23T05:16:00,0.4,南東,1.3,南,3.5,96.7,0,0,0,0.5,0,0,1002.3,1016.7
318,2019-12-23T05:17:00,0.4,南東,1.3,南,3.6,96.8,0,0,0,0.5,0,0,1002.3,1016.7
319,2019-12-23T05:18:00,0.4,南東,1.3,南,3.4,96.8,0,0,0,0.5,0,0,1002.4,1016.8
320,2019-12-23T05:19:00,0.3,南東,1.3,南,3.4,96.7,0,0,0,0.5,0,0,1002.3,1016.7
321,2019-12-23T05:20:00,0.3,南東,1.3,南,3.5,96.7,0,0,0,0.5,0,0,1002.3,1016.7